When you browse on this site, cookies collect data to enhance your experience and personalize the content and advertising you see.
Visit our Privacy Policy to learn more. By continuing to use the site, you agree to this use of cookies and data.
  • în România
  • Lista ţărilor
  • Pe 7 zile
  • Temperatura apei
  • Hartă satelitară
  • Meteo pe hartă
  • Widget-uri
  • user-avatar
    Intrare

    Meteo pe oră la Opoczka

    Astăzi, 19 Mai, Duminică

    Timp Temperatura Precipitaţii Vânt Presiune Umiditate
    00:00 +12°C° 0 mm 1 m/s 733 mmHg 86%
    01:00 +12°C° 0 mm 1 m/s 733 mmHg 86%
    02:00 +12°C° 0.1 mm 1 m/s 733 mmHg 86%
    03:00 +12°C° 0.1 mm 1 m/s 732 mmHg 87%
    04:00 +12°C° 0.1 mm 1 m/s 732 mmHg 87%
    05:00 +13°C° 0 mm 1 m/s 732 mmHg 83%
    06:00 +14°C° 0 mm 0 m/s 732 mmHg 79%
    07:00 +16°C° 0 mm 0 m/s 732 mmHg 73%
    08:00 +20°C° 0 mm 1 m/s 732 mmHg 69%
    09:00 +21°C° 0 mm 1 m/s 732 mmHg 65%
    10:00 +21°C° 0 mm 2 m/s 732 mmHg 61%
    11:00 +23°C° 0 mm 2 m/s 732 mmHg 59%
    12:00 +24°C° 0 mm 2 m/s 732 mmHg 57%
    13:00 +24°C° 0 mm 2 m/s 731 mmHg 55%
    14:00 +24°C° 0.5 mm 3 m/s 731 mmHg 59%
    15:00 +24°C° 0.5 mm 3 m/s 731 mmHg 64%
    16:00 +22°C° 0.5 mm 3 m/s 730 mmHg 68%
    17:00 +21°C° 0.5 mm 2 m/s 730 mmHg 72%
    18:00 +21°C° 0.5 mm 1 m/s 730 mmHg 76%
    19:00 +19°C° 0.5 mm 1 m/s 730 mmHg 80%
    20:00 +18°C° 0.3 mm 1 m/s 730 mmHg 82%
    21:00 +16°C° 0.3 mm 1 m/s 730 mmHg 84%
    22:00 +15°C° 0.3 mm 1 m/s 730 mmHg 85%
    23:00 +14°C° 0 mm 1 m/s 730 mmHg 86%

    Mâine, 20 Mai, Luni

    Timp Temperatura Precipitaţii Vânt Presiune Umiditate
    00:00 +14°C° 0 mm 1 m/s 730 mmHg 87%
    01:00 +14°C° 0 mm 1 m/s 730 mmHg 88%
    02:00 +13°C° 0 mm 1 m/s 729 mmHg 88%
    03:00 +13°C° 0 mm 1 m/s 729 mmHg 88%
    04:00 +13°C° 0 mm 1 m/s 729 mmHg 89%
    05:00 +14°C° 0.1 mm 1 m/s 729 mmHg 88%
    06:00 +14°C° 0.1 mm 0 m/s 729 mmHg 87%
    07:00 +15°C° 0.1 mm 0 m/s 729 mmHg 86%
    08:00 +16°C° 0.4 mm 1 m/s 729 mmHg 88%
    09:00 +16°C° 0.4 mm 1 m/s 729 mmHg 89%
    10:00 +16°C° 0.4 mm 1 m/s 729 mmHg 91%
    11:00 +18°C° 0.1 mm 1 m/s 729 mmHg 84%
    12:00 +19°C° 0.1 mm 2 m/s 729 mmHg 77%
    13:00 +20°C° 0.1 mm 3 m/s 729 mmHg 70%
    14:00 +20°C° 0.3 mm 3 m/s 729 mmHg 70%
    15:00 +20°C° 0.3 mm 3 m/s 729 mmHg 70%
    16:00 +21°C° 0.3 mm 3 m/s 729 mmHg 70%
    17:00 +19°C° 0.2 mm 3 m/s 729 mmHg 74%
    18:00 +18°C° 0.2 mm 2 m/s 729 mmHg 79%
    19:00 +17°C° 0.2 mm 2 m/s 729 mmHg 83%
    20:00 +16°C° 0 mm 2 m/s 729 mmHg 86%
    21:00 +14°C° 0 mm 2 m/s 729 mmHg 89%
    22:00 +13°C° 0 mm 2 m/s 730 mmHg 91%
    23:00 +13°C° 0 mm 2 m/s 730 mmHg 92%

    Poimâine, 21 Mai, Marţi

    Timp Temperatura Precipitaţii Vânt Presiune Umiditate
    00:00 +12°C° 0 mm 1 m/s 730 mmHg 92%
    01:00 +12°C° 0 mm 1 m/s 730 mmHg 93%
    02:00 +11°C° 0 mm 1 m/s 730 mmHg 93%
    03:00 +11°C° 0 mm 1 m/s 730 mmHg 93%
    04:00 +11°C° 0 mm 1 m/s 730 mmHg 93%
    05:00 +12°C° 0 mm 2 m/s 730 mmHg 89%
    06:00 +13°C° 0 mm 2 m/s 731 mmHg 85%
    07:00 +14°C° 0 mm 2 m/s 731 mmHg 82%
    08:00 +16°C° 0 mm 2 m/s 731 mmHg 76%
    09:00 +17°C° 0 mm 2 m/s 731 mmHg 71%
    10:00 +18°C° 0 mm 2 m/s 731 mmHg 66%
    11:00 +19°C° 0 mm 2 m/s 731 mmHg 66%
    12:00 +19°C° 0 mm 2 m/s 731 mmHg 65%
    13:00 +20°C° 0 mm 2 m/s 731 mmHg 65%
    14:00 +19°C° 0 mm 2 m/s 731 mmHg 67%
    15:00 +19°C° 0 mm 2 m/s 731 mmHg 70%
    16:00 +19°C° 0 mm 2 m/s 731 mmHg 73%
    17:00 +18°C° 0.1 mm 2 m/s 731 mmHg 77%
    18:00 +17°C° 0.1 mm 2 m/s 731 mmHg 82%
    19:00 +16°C° 0.1 mm 2 m/s 731 mmHg 86%
    20:00 +16°C° 0.7 mm 2 m/s 731 mmHg 88%
    21:00 +15°C° 0.7 mm 2 m/s 732 mmHg 89%
    22:00 +14°C° 0.7 mm 2 m/s 732 mmHg 91%
    23:00 +14°C° 0.1 mm 2 m/s 732 mmHg 91%

    22 Mai, Miercuri

    Timp Temperatura Precipitaţii Vânt Presiune Umiditate
    00:00 +14°C° 0.1 mm 2 m/s 732 mmHg 92%
    01:00 +13°C° 0.1 mm 2 m/s 732 mmHg 92%
    02:00 +13°C° 0 mm 2 m/s 732 mmHg 92%
    03:00 +13°C° 0 mm 2 m/s 732 mmHg 93%
    04:00 +13°C° 0 mm 2 m/s 732 mmHg 93%
    05:00 +14°C° 1.2 mm 2 m/s 733 mmHg 94%
    06:00 +14°C° 1.2 mm 2 m/s 733 mmHg 95%
    07:00 +14°C° 1.2 mm 2 m/s 733 mmHg 96%
    08:00 +14°C° 3.2 mm 2 m/s 733 mmHg 95%
    09:00 +14°C° 3.2 mm 2 m/s 733 mmHg 95%
    10:00 +14°C° 3.2 mm 2 m/s 733 mmHg 95%
    11:00 +13°C° 1.3 mm 3 m/s 734 mmHg 95%
    12:00 +14°C° 1.3 mm 4 m/s 734 mmHg 94%
    13:00 +14°C° 1.3 mm 4 m/s 734 mmHg 94%
    14:00 +14°C° 0.4 mm 5 m/s 734 mmHg 93%
    15:00 +14°C° 0.4 mm 6 m/s 734 mmHg 92%
    16:00 +14°C° 0.4 mm 6 m/s 735 mmHg 90%
    17:00 +13°C° 0 mm 6 m/s 735 mmHg 90%
    18:00 +13°C° 0 mm 5 m/s 735 mmHg 90%
    19:00 +12°C° 0 mm 5 m/s 735 mmHg 90%
    20:00 +12°C° 0.7 mm 4 m/s 736 mmHg 92%
    21:00 +12°C° 0.7 mm 4 m/s 736 mmHg 94%
    22:00 +12°C° 0.7 mm 3 m/s 736 mmHg 96%
    23:00 +12°C° 1.2 mm 4 m/s 736 mmHg 96%

    23 Mai, Joi

    Timp Temperatura Precipitaţii Vânt Presiune Umiditate
    00:00 +12°C° 1.2 mm 5 m/s 736 mmHg 96%
    01:00 +12°C° 1.2 mm 5 m/s 736 mmHg 96%
    02:00 +11°C° 1 mm 6 m/s 736 mmHg 96%
    03:00 +11°C° 1 mm 7 m/s 737 mmHg 95%
    04:00 +10°C° 1 mm 7 m/s 737 mmHg 95%
    05:00 +9°C° 0.9 mm 8 m/s 737 mmHg 95%
    06:00 +7°C° 0.9 mm 8 m/s 738 mmHg 94%
    07:00 +6°C° 0.9 mm 8 m/s 738 mmHg 94%
    08:00 +7°C° 0.5 mm 8 m/s 739 mmHg 91%
    09:00 +8°C° 0.5 mm 7 m/s 739 mmHg 88%
    10:00 +8°C° 0.5 mm 7 m/s 740 mmHg 85%
    11:00 +9°C° 0 mm 7 m/s 740 mmHg 82%
    12:00 +9°C° 0 mm 6 m/s 740 mmHg 78%
    13:00 +9°C° 0 mm 5 m/s 740 mmHg 75%
    14:00 +11°C° 0 mm 4 m/s 740 mmHg 75%
    15:00 +12°C° 0 mm 3 m/s 740 mmHg 76%
    16:00 +13°C° 0 mm 2 m/s 740 mmHg 76%
    17:00 +13°C° 0 mm 2 m/s 740 mmHg 77%
    18:00 +13°C° 0 mm 2 m/s 740 mmHg 78%
    19:00 +13°C° 0 mm 2 m/s 740 mmHg 78%
    20:00 +12°C° 0 mm 2 m/s 740 mmHg 81%
    21:00 +10°C° 0 mm 2 m/s 740 mmHg 84%
    22:00 +9°C° 0 mm 1 m/s 740 mmHg 86%
    23:00 +9°C° 0 mm 1 m/s 740 mmHg 87%

    24 Mai, Vineri

    Timp Temperatura Precipitaţii Vânt Presiune Umiditate
    00:00 +9°C° 0 mm 1 m/s 740 mmHg 87%
    01:00 +8°C° 0 mm 1 m/s 740 mmHg 87%
    02:00 +8°C° 0 mm 1 m/s 740 mmHg 88%
    03:00 +8°C° 0 mm 1 m/s 739 mmHg 89%
    04:00 +7°C° 0 mm 1 m/s 739 mmHg 90%
    05:00 +9°C° 0 mm 1 m/s 739 mmHg 84%
    06:00 +10°C° 0 mm 0 m/s 739 mmHg 79%
    07:00 +12°C° 0 mm 0 m/s 739 mmHg 73%
    08:00 +14°C° 0 mm 0 m/s 738 mmHg 68%
    09:00 +15°C° 0 mm 0 m/s 738 mmHg 63%
    10:00 +17°C° 0 mm 0 m/s 738 mmHg 59%
    11:00 +17°C° 0 mm 0 m/s 737 mmHg 56%
    12:00 +20°C° 0 mm 1 m/s 736 mmHg 54%
    13:00 +21°C° 0 mm 1 m/s 736 mmHg 52%
    14:00 +20°C° 0 mm 1 m/s 735 mmHg 55%
    15:00 +20°C° 0 mm 1 m/s 735 mmHg 57%
    16:00 +20°C° 0 mm 1 m/s 734 mmHg 60%
    17:00 +18°C° 0 mm 2 m/s 733 mmHg 66%
    18:00 +17°C° 0 mm 2 m/s 733 mmHg 72%
    19:00 +16°C° 0 mm 2 m/s 732 mmHg 78%
    20:00 +14°C° 0 mm 2 m/s 732 mmHg 79%
    21:00 +13°C° 0 mm 2 m/s 731 mmHg 80%
    22:00 +12°C° 0 mm 2 m/s 731 mmHg 81%
    23:00 +11°C° 0 mm 3 m/s 731 mmHg 79%
    Arată mai mult